map of TXL home
TXL - Airport
Location
City:  Berlin, Berlin, Germany
Near (Alt.):Tegel
Name:Berlin Tegel Airport
Old (Alt.):Berlin-Tegel Otto Lilienthal
ICAO:EDDT
IATA:TXL

Details
Type:Airport (Flugplatz, Airfield)
Latitude:5233'35"N (52.559683)
Longitude:1317'16"E (13.287717)
Elevation:122 ft (37 m)
Variation:3.69E (WMM2015 magnetic declination)
0.13 annual change
Runways:2
Longest:9918 × 151 ft (3023 × 46 m), paved

Time
Time Zone:UTC+1 (DST+2)
Local Time:

Weather
METAR:EDDT 280620Z 10007KT 050V130 CAVOK 18/12 Q1004 NOSIG
TAF:EDDT 280500Z 2806/2906 07008KT CAVOK PROB40
TEMPO 2814/2821 18015G35KT TSRA BKN020CB
BECMG 2818/2822 01005KT
BECMG 2822/2902 25004KT 4000 BR SCT004 BKN007
TEMPO 2902/2906 25009KT 2000 SHRA BR BKN004 BKN015CB

Related Locations
Nearby:
Farthest:CHT: 11681 mi / 18798 km
Waitangi [Tuuta], CIT, NZ

Find:

   beyond  
but within

Other Information
Maps:
NOTAMs:
Links:
Sources:

  
flag of Germany
flag of Berlin
  

Sectional Chart

Flight Planning
at skyvector.com

Satellite Image

Google Maps Satellite view

 

Copyright © 2004-2017 Karl L. Swartz. All rights reserved.
The Great Circle Mapper name and logo are trademarks of the Great Circle Mapper.
All other trademarks mentioned herein belong to their respective owners.
Please see credits for attibutions and further copyright information.

  Follow gcmap on Facebook Follow gcmap on Twitter Follow gcmap on Google+ GCmap on LinkedIn

hCard Microformat

Geo Microformat